Location: Newark
(49.2191°N, 12.6671°E)
Time: 07:48:42
(UTC+00:00)

Transit 4A - Pass Details

Date: 27 January 2020
Orbit: 872 x 973 km, 66.8° (Epoch: 17 February)

Event Time Altitude Azimuth Distance (km) Brightness Sun altitude
Rises 06:23:11 0° 232° (SW) 3,535 10.6 -4.5°
Reaches altitude 10° 06:25:47 10° 238° (WSW) 2,582 9.9 -4.1°
Maximum altitude 06:31:35 51° 313° (NW) 1,111 8.0 -3.2°
Drops below altitude 10° 06:37:19 10° 30° (NNE) 2,543 10.3 -2.4°
Sets 06:39:52 0° 35° (NE) 3,478 11.0 -2.0°
